CW0608 Weather Reports


time (UTC)temp
F
wind
direction
speed
knots
gust
knots
rain 1hr
in
rain 24hr
in
rain mn
in
humidity
%
barometer
mb
20260505051303 57 148 0.0 0.0 0.00 0.00 0.00 77 1011.9
20260505041304 58 146 0.0 1.7 0.00 0.00 0.00 75 1011.7
20260505040305 59 146 0.9 2.6 0.00 0.00 0.00 74 1011.6
20260505035804 59 146 1.7 2.6 0.00 0.00 0.00 74 1011.5
20260505035305 59 146 0.9 2.6 0.00 0.00 0.00 73 1011.5
20260505034804 59 158 0.0 2.6 0.00 0.00 0.00 73 1011.6
20260505033804 59 160 0.9 2.6 0.00 0.00 0.00 72 1011.5
20260505032804 60 161 0.9 2.6 0.00 0.00 0.00 71 1011.6
20260505030304 61 162 0.9 2.6 0.00 0.00 0.00 68 1011.6
20260505025305 62 154 2.6 6.1 0.00 0.00 0.00 66 1011.6
20260505024804 62 158 2.6 6.1 0.00 0.00 0.00 66 1011.5
20260505023804 61 163 1.7 6.1 0.00 0.00 0.00 68 1011.5
20260505023303 61 158 2.6 6.1 0.00 0.00 0.00 68 1011.5
20260505022304 61 170 1.7 5.2 0.00 0.00 0.00 69 1011.6
20260505021804 61 152 1.7 2.6 0.00 0.00 0.00 69 1011.5
20260505021304 61 154 0.9 1.7 0.00 0.00 0.00 68 1011.6
20260505015805 61 154 0.9 2.6 0.00 0.00 0.00 67 1011.6
20260505014307 62 153 0.9 2.6 0.00 0.00 0.00 66 1011.5
20260505013303 62 142 0.9 2.6 0.00 0.00 0.00 65 1011.4
20260505012803 62 165 0.9 4.3 0.00 0.00 0.00 65 1011.3
20260505012306 62 164 0.9 4.3 0.00 0.00 0.00 64 1011.3
20260505010803 62 165 0.9 2.6 0.00 0.00 0.00 64 1011.1
20260505010304 63 165 0.9 2.6 0.00 0.00 0.00 62 1011.1
20260505004804 64 156 1.7 5.2 0.00 0.00 0.00 59 1011.0
20260505004305 64 157 1.7 5.2 0.00 0.00 0.00 58 1011.1
20260505003805 65 159 1.7 7.8 0.00 0.00 0.00 57 1011.0
20260505003304 65 165 2.6 7.8 0.00 0.00 0.00 57 1011.0
20260505002304 66 176 2.6 7.8 0.00 0.00 0.00 54 1011.0
20260504235803 67 150 4.3 10.4 0.00 0.00 0.00 50 1010.9
20260504235305 67 157 5.2 10.4 0.00 0.00 0.00 49 1010.9
20260504234805 67 154 3.5 8.7 0.00 0.00 0.00 49 1010.9
20260504232304 69 159 3.5 13.9 0.00 0.00 0.00 49 1011.0
20260504231803 69 162 6.1 13.9 0.00 0.00 0.00 47 1011.0
20260504231304 69 159 2.6 10.4 0.00 0.00 0.00 47 1011.0
20260504224804 70 156 6.1 14.8 0.00 0.00 0.00 47 1010.9
20260504224305 70 159 3.5 12.2 0.00 0.00 0.00 47 1010.9
20260504223803 70 151 3.5 12.2 0.00 0.00 0.00 45 1010.8
20260504222803 71 153 3.5 11.3 0.00 0.00 0.00 45 1010.9
20260504222305 71 163 3.5 14.8 0.00 0.00 0.00 45 1010.8
20260504220804 72 163 5.2 12.2 0.00 0.00 0.00 45 1010.8
20260504214304 73 148 4.3 12.2 0.00 0.00 0.00 43 1010.9
20260504213805 73 142 4.3 12.2 0.00 0.00 0.00 42 1010.9
20260504213304 73 126 6.1 12.2 0.00 0.00 0.00 41 1010.9
20260504211304 74 150 3.5 11.3 0.00 0.00 0.00 43 1010.8
20260504205304 74 156 6.1 13.9 0.00 0.00 0.00 41 1010.8
20260504201805 73 91 2.6 10.4 0.00 0.00 0.00 44 1011.3
20260504200804 73 125 4.3 13.9 0.00 0.00 0.00 42 1011.3
20260504195804 73 136 3.5 10.4 0.00 0.00 0.00 42 1011.8
20260504191804 73 155 3.5 10.4 0.00 0.00 0.00 43 1012.4
20260504191304 74 105 4.3 8.7 0.00 0.00 0.00 41 1012.5
20260504185805 74 133 3.5 10.4 0.00 0.00 0.00 44 1012.7
20260504183804 74 151 5.2 12.2 0.00 0.00 0.00 39 1012.8
20260504181804 73 134 5.2 13.0 0.00 0.00 0.00 40 1012.8
20260504181304 73 155 7.8 13.0 0.00 0.00 0.00 40 1012.9
20260504175804 73 218 4.3 13.9 0.00 0.00 0.00 41 1013.0
20260504174304 73 168 4.3 8.7 0.00 0.00 0.00 37 1013.2
20260504173803 73 213 4.3 8.7 0.00 0.00 0.00 42 1013.4
20260504172304 72 159 2.6 8.7 0.00 0.00 0.00 42 1013.7
20260504170803 71 179 1.7 11.3 0.00 0.00 0.00 39 1013.7
20260504150303 65 195 4.3 7.8 0.00 0.00 0.00 45 1014.9
20260504130803 57 185 4.3 7.0 0.00 0.00 0.00 57 1015.7
20260504130303 57 200 1.7 6.1 0.00 0.00 0.00 58 1015.7
20260504120304 54 191 2.6 4.3 0.00 0.00 0.00 66 1015.9
20260504081805 41 241 0.0 0.0 0.00 0.00 0.00 89 1016.4
20260504080806 41 241 0.0 0.0 0.00 0.00 0.00 89 1016.5